Regional Weather Roundup
Issued by NWS San Angelo, TX

Home | Current Version | Previous Version | Text Only | Print | Product List | Glossary On
Versions: 1 2 3 4 5 6 7 8 9 10 11 12 13 14 15 16 17 18 19 20 21 22 23 24 25 26 27 28 29 30 31 32 33 34 35 36 37 38 39 40 41 42 43 44 45 46 47 48 49 50
000
ASUS44 KSJT 311510
RWRSJT
WEST CENTRAL TEXAS REGIONAL WEATHER ROUNDUP
NATIONAL WEATHER SERVICE SAN ANGELO TX
1000 AM CDT MON AUG 31 2015

NOTE: "FAIR" INDICATES FEW OR NO CLOUDS BELOW 12,000 FEET WITH NO
SIGNIFICANT WEATHER AND/OR OBSTRUCTIONS TO VISIBILITY.

TXZ049-054-064>066-071>073-076>078-098-099-113-114-127-128-139-140-
154-155-168>170-311600
...LOCATIONS ACROSS WEST CENTRAL TEXAS...

CITY           SKY/WX    TMP DP  RH WIND       PRES   REMARKS
SAN ANGELO     SUNNY     78  67  68 S7        30.06S
ABILENE        SUNNY     78  64  61 S12       30.06S
DYESS AFB      SUNNY     81  66  60 S12       30.04F
JUNCTION       SUNNY     73  68  84 CALM      30.06S
SWEETWATER     SUNNY     80  63  55 S17       30.09S
BROWNWOOD      NOT AVBL
COLEMAN        SUNNY     78  67  69 SW9       30.07S
SONORA         SUNNY     77  68  73 S8        30.11S
OZONA          FAIR      77  64  65 S6        30.10S
BRADY          SUNNY     82  70  65 S9        30.06S
$$

TEXAS PANHANDLE/OKLAHOMA PANHANDLE

CITY           SKY/WX    TMP DP  RH WIND       PRES   REMARKS
AMARILLO       SUNNY     75  55  49 S21       30.07S
BORGER         SUNNY     78  55  44 SW18G28   30.03F
CANADIAN       SUNNY     78  62  56 W5        30.00F
DALHART        SUNNY     77  51  40 S20G29    30.06S
DUMAS          SUNNY     75  52  44 SW17G23   30.06R
GUYMON         NOT AVBL
HEREFORD       SUNNY     75  58  55 S9G20     30.09F
PAMPA          SUNNY     79  56  45 W15G22    30.06S
PERRYTON       SUNNY     80  55  42 SW16      30.01S
$$

SOUTHERN PANHANDLE/SOUTH PLAINS/ROLLING PLAINS

CITY           SKY/WX    TMP DP  RH WIND       PRES   REMARKS
LUBBOCK        MOSUNNY   75  58  55 S13       30.09S
SNYDER         SUNNY     74  61  63 S10       30.08S
CHILDRESS      SUNNY     76  59  55 SW5       30.02S
SEMINOLE       SUNNY     75  57  53 S10       30.11S
$$

PERMIAN BASIN

CITY           SKY/WX    TMP DP  RH WIND       PRES   REMARKS
MIDLAND        SUNNY     77  60  55 S13       30.08R
ODESSA         SUNNY     77  58  51 S10       30.09R
WINK           SUNNY     76  59  55 SE13      30.05S
$$

FAR WEST/SOUTHWEST MOUNTAINS/TRANS PECOS

CITY           SKY/WX    TMP DP  RH WIND       PRES   REMARKS
ALPINE         SUNNY     78  49  36 SW7       30.20R
DRYDEN           N/A     77  64  64 S7        30.04R
EL PASO        SUNNY     77  50  38 SE6       30.09S
FORT STOCKTON  SUNNY     76  57  51 S10       30.07S
GUADALUPE PASS SUNNY     71  48  43 SW3       30.21R
MARFA          SUNNY     72  52  49 CALM      30.19R
PECOS          SUNNY     72  56  56 E5        30.05S
$$

DALLAS/FORT WORTH METROPLEX

CITY           SKY/WX    TMP DP  RH WIND       PRES   REMARKS
DFW AIRPORT    MOSUNNY   82  67  60 S5        30.03R
FTW MEACHAM    SUNNY     84  67  56 S7        30.03R
DAL-EXECUTIVE  SUNNY     82  67  60 VRB3      30.03S
GRAND PRAIRIE  SUNNY     81  68  65 S5        30.05R
ADDISON        NOT AVBL
MESQUITE       SUNNY     81  68  65 SE5       30.04S
LANCASTER      SUNNY     81  66  60 S3        30.05S
$$

NORTH CENTRAL TEXAS

CITY           SKY/WX    TMP DP  RH WIND       PRES   REMARKS
SHRMAN/DENISON SUNNY     84  68  58 SW8       30.05S
GAINESVILLE    SUNNY     82  64  55 S7        30.06S
BRIDGEPORT     SUNNY     82  67  60 SW8       30.05S
DENTON         SUNNY     83  67  58 S8        30.03S
WAXAHACHIE     SUNNY     81  69  67 S5        30.05S
GRANBURY       SUNNY     82  67  61 SW3       30.05S
$$

WESTERN NORTH TEXAS

CITY           SKY/WX    TMP DP  RH WIND       PRES   REMARKS
WICHITA FALLS  SUNNY     82  62  50 S9        30.02R
VERNON         SUNNY     80  55  41 S9        30.02F
BRECKENRIDGE   SUNNY     83  64  53 SW10      30.04S
COMANCHE       SUNNY     82  68  63 SW8       30.06S
$$

CENTRAL AND SOUTH CENTRAL TEXAS

CITY           SKY/WX    TMP DP  RH WIND       PRES   REMARKS
AUSTIN/BERGSTM MOSUNNY   82  72  71 S7        30.03S
WACO           SUNNY     81  70  69 SW6       30.05R
HILLSBORO      SUNNY     81  67  63 S7        30.05R
TEMPLE         SUNNY     81  68  65 S9        30.05R
KILLEEN-GRAY   MOSUNNY   78  70  76 VRB3      30.04S
FORT HOOD      PTSUNNY   79  70  74 S7        30.03S
GEORGETOWN     MOSUNNY   81  72  74 S7        30.06R
LAGO VISTA     FAIR      80  69  70 S5        30.07R
SAN MARCOS     SUNNY     81  73  78 S6        30.05R
NEW BRAUNFELS  MOSUNNY   82  73  74 VRB6      30.03R
RANDOLPH AFB   MOSUNNY   80  72  76 S7        30.04R
SAN ANTONIO    PTSUNNY   82  71  69 S9        30.04S
STINSON        MOSUNNY   82  72  71 S5        30.01S
PLEASANTON     NOT AVBL
LA GRANGE      MOSUNNY   82  75  79 SE3       30.02R
GIDDINGS       MOSUNNY   82  73  73 S6        30.08R
$$

EAST TEXAS

CITY           SKY/WX    TMP DP  RH WIND       PRES   REMARKS
PARIS          SUNNY     81  64  57 SW6       30.06R
CLARKSVILLE    NOT AVBL
TYLER          SUNNY     82  70  66 S8        30.07R
LONGVIEW       MOSUNNY   79  70  74 SW7       30.06S
PALESTINE      MOSUNNY   80  72  77 S5        30.08R
NACOGDOCHES    SUNNY     79  72  78 S5        30.07S
$$

TEXAS HILL COUNTRY AND EDWARDS PLATEAU

CITY           SKY/WX    TMP DP  RH WIND       PRES   REMARKS
LLANO          MOSUNNY   81  70  69 CALM      30.08S
HORSESHOE BAY  FAIR      81  71  71 SW3       30.05S
KERRVILLE      MOSUNNY   79  71  76 S5        30.06S
FREDERICKSBRG  SUNNY     79  66  66 SW7       30.06S
ROCKSPRINGS    PTSUNNY   73  70  88 SE8       30.11R
HONDO          MOSUNNY   81  71  71 SE6       30.05R
UVALDE         SUNNY     80  71  71 SE7       30.03S
DEL RIO        SUNNY     80  70  71 SE9       30.00R
$$

SOUTHEAST TEXAS

CITY           SKY/WX    TMP DP  RH WIND       PRES   REMARKS
COLLEGE STN    MOSUNNY   81  73  76 S7        30.04S
CALDWELL       MOSUNNY   81  75  83 CALM      30.08S
CROCKETT       MOSUNNY   82  72  69 S5        30.09S
BRENHAM        SUNNY     83  75  77 SE5       30.05R
HUNTSVILLE     MOSUNNY   83  71  67 SW5       30.06R
CONROE         SUNNY     82  70  66 VRB3      30.06R
HOUSTON BUSH   MOSUNNY   85  74  69 NE3       30.04S
HOUSTON HOBBY  PTSUNNY   84  73  69 CALM      30.03R
PERLAND        MOSUNNY   86  73  65 E6        30.05R
WHARTON        MOSUNNY   84  73  70 E7        30.03S
$$

THE UPPER TEXAS COAST

CITY           SKY/WX    TMP DP  RH WIND       PRES   REMARKS
ORANGE         PTSUNNY   81  68  64 NE7       30.08S
PORT ARTHUR    PTSUNNY   82  73  74 NE8       30.05S
GALVESTON      MOSUNNY   86  73  65 SE6       30.04R
ANGLETON       PTSUNNY   85  76  74 NE6       30.02S
BAY CITY       PTSUNNY   86  77  74 E6        30.02R
$$

TEXAS COASTAL BEND, RIO GRANDE PLAINS DEEP SOUTH TEXAS

CITY           SKY/WX    TMP DP  RH WIND       PRES   REMARKS
VICTORIA       PTSUNNY   83  77  82 NE3       30.01S
BEEVILLE       FAIR      84  77  80 S7        30.01S
ROCKPORT       MOSUNNY   88  74  63 SE9       29.99R
PORT ARANSAS   MOSUNNY   86  72  63 S7        29.98S
PORT LAVACA    PTSUNNY   82  77  82 NE6       30.01R
CORPUS CHRISTI PTSUNNY   87  74  64 SE9       29.98F
KINGSVILLE NAS PTSUNNY   88  77  69 S9        29.99R
COTULLA        SUNNY     81  73  76 SE10      30.01R
LAREDO         PTSUNNY   84  74  72 SE10      30.01R
BROWNSVILLE    MOSUNNY   83  77  82 S10       29.96S
PORT ISABEL    PTSUNNY   84  81  90 S6        29.97R
HEBBRONVILLE   NOT AVBL
MCALLEN        MOSUNNY   85  76  74 SE12      29.97F
WESLACO        SUNNY     84  75  73 S9        29.96S
FALFURRIAS     SUNNY     85  76  73 SE6       29.98S
EDINBURG       SUNNY     85  75  73 S7        29.97S
$$


USA.gov is the U.S. government's official web portal to all federal, state and local government web resources and services.